Find Starlink 34648

NORAD ID: 65091 Int'l Des: 2025-167 Owner: SPXS Country: US Constellation: starlink operational
LEOCIRCULAR

当前视图

正在加载3D地球...

关于 Starlink 34648

正在加载描述...

即将过境

Passes for default location (London). Set your location on the main map for personalized predictions.

高度历史

Loading altitude history...

两行轨道根数

1 65091U 25167P 26150.62026522 .00062981 00000-0 14438-2 0 9999
2 65091 53.1591 3.2698 0000726 103.1950 256.9137 15.42182509 46065
Epoch: May 30, 2026 • Age: 10 hours

当前状态

高度 443.7 km
速度 7.65 km/s
星下点 44.33°N, 152.37°E
发射日期 Aug 4, 2025
运行时间 0.8 years
类型 internet

技术详情

分类 Payload
质量 575.00 kg
干质量 530.00 kg
总质量 575.00 kg
长度 0.30 m
直径 4.10 m
跨度 29.00 m
形状 Box + pan
制造商 SPXS
平台类型 Starlink V2MO
阶段状态 In Orbit
所有者/国家 SPXS/US

Most Searched